FW9565 Weather Reports


time (UTC)temp
C
wind
direction
speed
KPH
gust
KPH
rain 1hr
cm
rain 24hr
cm
rain mn
cm
humidity
%
barometer
mb
20260506004557 22 328 11.3 22.5 0.00 0.00 0.00 71 1005.8
20260506004054 22 340 9.7 19.3 0.00 0.00 0.00 71 1005.8
20260506003552 22 324 6.4 27.4 0.00 0.00 0.00 70 1006.0
20260506003056 22 331 8.0 27.4 0.00 0.00 0.00 70 1005.8
20260506002551 22 332 12.9 27.4 0.00 0.00 0.00 70 1005.7
20260506002052 22 309 8.0 19.3 0.00 0.00 0.00 70 1005.5
20260506001558 22 337 9.7 19.3 0.00 0.00 0.00 70 1005.5
20260506001051 23 295 8.0 30.6 0.00 0.00 0.00 69 1005.5
20260506000552 23 303 11.3 30.6 0.00 0.00 0.00 69 1005.4
20260506000100 23 314 14.5 27.4 0.00 0.00 0.00 69 1005.4
20260505235552 23 264 16.1 27.4 0.00 0.00 0.00 69 1005.6
20260505235052 23 353 12.9 27.4 0.00 0.00 0.00 69 1005.4
20260505234601 23 1 14.5 27.4 0.00 0.00 0.00 68 1005.4
20260505234053 24 298 14.5 25.7 0.00 0.00 0.00 67 1005.2
20260505233552 25 290 12.9 32.2 0.00 0.00 0.00 67 1005.2
20260505233053 25 360 14.5 32.2 0.00 0.00 0.00 66 1005.1
20260505232552 25 288 11.3 25.7 0.00 0.00 0.00 65 1004.9
20260505232052 26 290 9.7 25.7 0.00 0.00 0.00 64 1005.0
20260505231555 26 306 11.3 25.7 0.00 0.00 0.00 64 1005.0
20260505231052 26 311 12.9 29.0 0.00 0.00 0.00 64 1005.0
20260505230552 26 269 14.5 29.0 0.00 0.00 0.00 63 1004.9
20260505230100 27 311 14.5 27.4 0.00 0.00 0.00 63 1004.7
20260505225552 27 285 12.9 24.1 0.00 0.00 0.00 63 1004.6
20260505225053 27 291 11.3 24.1 0.00 0.00 0.00 62 1004.3
20260505224556 28 293 11.3 24.1 0.00 0.00 0.00 60 1004.2
20260505224052 28 338 11.3 22.5 0.00 0.00 0.00 57 1004.4
20260505223552 29 271 8.0 22.5 0.00 0.00 0.00 55 1004.3
20260505223055 29 316 9.7 22.5 0.00 0.00 0.00 53 1004.1
20260505222553 30 277 12.9 22.5 0.00 0.00 0.00 51 1003.9
20260505222056 30 335 8.0 19.3 0.00 0.00 0.00 51 1003.9
20260505221604 30 311 11.3 22.5 0.00 0.00 0.00 50 1003.9
20260505221052 30 287 9.7 22.5 0.00 0.00 0.00 49 1003.8
20260505220552 30 289 9.7 19.3 0.00 0.00 0.00 49 1003.7
20260505220104 30 291 9.7 19.3 0.00 0.00 0.00 48 1003.6
20260505215551 31 6 9.7 24.1 0.00 0.00 0.00 49 1003.6
20260505215053 31 323 11.3 24.1 0.00 0.00 0.00 49 1003.6
20260505214555 31 271 9.7 17.7 0.00 0.00 0.00 50 1003.8
20260505214052 31 257 11.3 16.1 0.00 0.00 0.00 54 1003.7
20260505213552 -17 0.0 0.0 0.00 0.00 0.00 1003.7
20260505213055 -17 0.0 0.0 0.00 0.00 0.00 1003.6
20260505212552 -17 0.0 0.0 0.00 0.00 0.00 1003.7
20260505212053 -17 0.0 0.0 0.00 0.00 0.00 1003.7
20260505211553 -17 0.0 0.0 0.00 0.00 0.00 1003.8
20260505211053 -17 0.0 0.0 0.00 0.00 0.00 1004.0
20260505210552 -17 0.0 0.0 0.00 0.00 0.00 1004.1
20260505210054 -17 0.0 0.0 0.00 0.00 0.00 1004.1
20260505205553 -17 0.0 0.0 0.00 0.00 0.00 1004.2
20260505205053 -17 0.0 0.0 0.00 0.00 0.00 1004.1
20260505204603 -17 0.0 0.0 0.00 0.00 0.00 1004.0
20260505204052 -17 0.0 0.0 0.00 0.00 0.00 1004.3
20260505203556 30 11.3 24.1 0.00 0.00 0.00 59 1004.3
20260505203107 30 216 8.0 24.1 0.00 0.00 0.00 59 1004.3
20260505202552 30 193 12.9 24.1 0.00 0.00 0.00 59 1004.6
20260505202052 30 220 12.9 24.1 0.00 0.00 0.00 59 1004.6
20260505201604 31 265 9.7 0.0 0.00 0.00 0.00 60 1004.6
20260505201052 -17 0.0 0.0 0.00 0.00 0.00 1004.4
20260505200554 -17 0.0 0.0 0.00 0.00 0.00 1004.5
20260505200058 -17 0.0 0.0 0.00 0.00 0.00 1004.5
20260505195552 -17 0.0 0.0 0.00 0.00 0.00 1004.6
20260505195051 -17 0.0 0.0 0.00 0.00 0.00 1004.7
20260505194603 -17 0.0 0.0 0.00 0.00 0.00 1004.7
20260505194052 -17 0.0 0.0 0.00 0.00 0.00 1004.8
20260505193551 -17 0.0 0.0 0.00 0.00 0.00 1004.7
20260505193059 -17 0.0 0.0 0.00 0.00 0.00 1004.8
20260505192553 -17 0.0 0.0 0.00 0.00 0.00 1004.5
20260505192052 -17 0.0 0.0 0.00 0.00 0.00 1004.7
20260505191556 -17 0.0 0.0 0.00 0.00 0.00 1004.7
20260505191052 -17 0.0 0.0 0.00 0.00 0.00 1004.7
20260505190554 28 17.7 24.1 0.00 0.00 0.00 65 1004.7
20260505190054 28 16.1 27.4 0.00 0.00 0.00 65 1004.7
20260505185552 28 195 16.1 27.4 0.00 0.00 0.00 65 1004.7
20260505185052 28 179 14.5 27.4 0.00 0.00 0.00 65 1004.7
20260505184556 28 207 16.1 24.1 0.00 0.00 0.00 65 1004.8
20260505184052 28 165 12.9 27.4 0.00 0.00 0.00 65 1004.8
20260505183554 28 210 12.9 27.4 0.00 0.00 0.00 64 1004.8
20260505183058 28 189 14.5 22.5 0.00 0.00 0.00 65 1004.8
20260505182551 -17 0.0 0.0 0.00 0.00 0.00 1004.8
20260505182052 -17 0.0 0.0 0.00 0.00 0.00 1004.8
20260505181600 -17 0.0 0.0 0.00 0.00 0.00 1004.9
20260505181052 -17 0.0 0.0 0.00 0.00 0.00 1004.8
20260505180552 -17 0.0 0.0 0.00 0.00 0.00 1004.8
20260505180055 -17 0.0 0.0 0.00 0.00 0.00 1004.7
20260505175553 -17 0.0 0.0 0.00 0.00 0.00 1004.9
20260505175052 -17 0.0 0.0 0.00 0.00 0.00 1004.7
20260505174556 -17 0.0 0.0 0.00 0.00 0.00 1004.8
20260505174052 -17 0.0 0.0 0.00 0.00 0.00 1004.7
20260505173551 -17 0.0 0.0 0.00 0.00 0.00 1004.9
20260505173055 -17 0.0 0.0 0.00 0.00 0.00 1004.8
20260505172614 -17 0.0 0.0 0.00 0.00 0.00 1004.8
20260505172051 -17 0.0 0.0 0.00 0.00 0.00 1004.8
20260505171556 26 11.3 19.3 0.00 0.00 0.00 73 1004.8
20260505171052 26 168 8.0 27.4 0.00 0.00 0.00 73 1004.8
20260505170552 26 202 16.1 32.2 0.00 0.00 0.00 73 1004.8
20260505170056 26 158 16.1 32.2 0.00 0.00 0.00 72 1004.9
20260505165551 26 142 14.5 29.0 0.00 0.00 0.00 73 1005.0
20260505165053 26 180 16.1 29.0 0.00 0.00 0.00 73 1005.0
20260505164602 26 133 14.5 24.1 0.00 0.00 0.00 73 1004.9
20260505164052 26 201 12.9 27.4 0.00 0.00 0.00 73 1004.9
20260505163552 26 216 14.5 27.4 0.00 0.00 0.00 75 1004.8
20260505163053 26 197 12.9 16.1 0.00 0.00 0.00 74 1004.8
20260505162551 -17 0.0 0.0 0.00 0.00 0.00 1004.9
20260505162051 -17 0.0 0.0 0.00 0.00 0.00 1004.8
20260505161557 -17 0.0 0.0 0.00 0.00 0.00 1004.7
20260505161052 -17 0.0 0.0 0.00 0.00 0.00 1004.6
20260505160554 -17 0.0 0.0 0.00 0.00 0.00 1004.7
20260505153107 -17 0.0 0.0 0.00 0.00 0.00 1004.4
20260505152554 -17 0.0 0.0 0.00 0.00 0.00 1004.4
20260505152051 -17 17.7 0.0 0.00 0.00 0.00 1004.4
20260505151556 24 16.1 32.2 0.00 0.00 0.00 79 1004.5
20260505151051 24 190 17.7 32.2 0.00 0.00 0.00 79 1004.5
20260505150551 24 200 14.5 30.6 0.00 0.00 0.00 79 1004.7
20260505140552 22 240 17.7 37.0 0.00 0.00 0.00 83 1004.5
20260505124608 21 133 11.3 25.7 0.00 0.00 0.00 86 1004.1
20260505124052 21 116 9.7 19.3 0.00 0.00 0.00 86 1004.2
20260505123555 21 141 9.7 17.7 0.00 0.00 0.00 86 1004.1
20260505123100 -17 0.0 0.0 0.00 0.00 0.00 1004.2
20260505122554 -17 0.0 0.0 0.00 0.00 0.00 1003.9
20260505122052 -17 0.0 0.0 0.00 0.00 0.00 1003.8
20260505121556 -17 0.0 0.0 0.00 0.00 0.00 1003.7
20260505121052 -17 0.0 0.0 0.00 0.00 0.00 1003.7
20260505120552 -17 0.0 0.0 0.00 0.00 0.00 1003.7
20260505120105 -17 0.0 0.0 0.00 0.00 0.00 1003.8
20260505115551 -17 0.0 0.0 0.00 0.00 0.00 1003.6
20260505115051 -17 0.0 0.0 0.00 0.00 0.00 1003.6
20260505114557 -17 0.0 0.0 0.00 0.00 0.00 1003.5
20260505114053 -17 0.0 0.0 0.00 0.00 0.00 1003.5
20260505113552 -17 0.0 0.0 0.00 0.00 0.00 1003.6
20260505113113 -17 0.0 0.0 0.00 0.00 0.00 1003.6
20260505112555 -17 0.0 0.0 0.00 0.00 0.00 1003.6
20260505112052 -17 0.0 0.0 0.00 0.00 0.00 1003.6
20260505111552 -17 0.0 0.0 0.00 0.00 0.00 1003.6
20260505111055 -17 0.0 0.0 0.00 0.00 0.00 1003.4
20260505110552 -17 0.0 0.0 0.00 0.00 0.00 1003.4
20260505102052 -17 0.0 0.0 0.00 0.00 0.00 1003.5
20260505101557 -17 0.0 0.0 0.00 0.00 0.00 1003.4
20260505101053 -17 0.0 0.0 0.00 0.00 0.00 1003.5
20260505100552 -17 0.0 0.0 0.00 0.00 0.00 1003.6
20260505100054 -17 0.0 0.0 0.00 0.00 0.00 1003.5
20260505095552 -17 0.0 0.0 0.00 0.00 0.00 1003.6
20260505095051 -17 0.0 0.0 0.00 0.00 0.00 1003.5
20260505094554 -17 0.0 0.0 0.00 0.00 0.00 1003.5
20260505094051 -17 0.0 0.0 0.00 0.00 0.00 1003.5
20260505093551 -17 0.0 0.0 0.00 0.00 0.00 1003.7
20260505093104 -17 0.0 0.0 0.00 0.00 0.00 1003.9
20260505092550 -17 0.0 0.0 0.00 0.00 0.00 1003.8
20260505092054 -17 0.0 0.0 0.00 0.00 0.00 1003.8
20260505091555 -17 0.0 0.0 0.00 0.00 0.00 1004.0
20260505091051 -17 0.0 0.0 0.00 0.00 0.00 1003.9
20260505090551 -17 0.0 0.0 0.00 0.00 0.00 1004.1
20260505090053 -17 0.0 0.0 0.00 0.00 0.00 1004.2
20260505085552 -17 0.0 0.0 0.00 0.00 0.00 1004.0
20260505085054 -17 0.0 0.0 0.00 0.00 0.00 1004.0
20260505084556 -17 0.0 0.0 0.00 0.00 0.00 1003.9
20260505084054 -17 0.0 0.0 0.00 0.00 0.00 1004.0
20260505083553 -17 0.0 0.0 0.00 0.00 0.00 1004.0
20260505083100 -17 0.0 0.0 0.00 0.00 0.00 1003.9
20260505082552 -17 0.0 0.0 0.00 0.00 0.00 1004.0
20260505082052 -17 0.0 0.0 0.00 0.00 0.00 1004.1
20260505081557 -17 0.0 0.0 0.00 0.00 0.00 1004.1
20260505081052 -17 0.0 0.0 0.00 0.00 0.00 1003.9
20260505080551 -17 0.0 0.0 0.00 0.00 0.00 1004.2
20260505080108 -17 0.0 0.0 0.00 0.00 0.00 1004.2
20260505075551 -17 0.0 0.0 0.00 0.00 0.00 1004.2
20260505075051 -17 0.0 0.0 0.00 0.00 0.00 1004.2
20260505074554 -17 0.0 0.0 0.00 0.00 0.00 1004.2
20260505074054 -17 0.0 0.0 0.00 0.00 0.00 1004.4
20260505073551 -17 0.0 0.0 0.00 0.00 0.00 1004.4
20260505073100 -17 0.0 0.0 0.00 0.00 0.00 1004.6
20260505072553 -17 0.0 0.0 0.00 0.00 0.00 1004.7
20260505072052 -17 0.0 0.0 0.00 0.00 0.00 1004.7
20260505071554 -17 0.0 0.0 0.00 0.00 0.00 1004.8
20260505071053 -17 0.0 0.0 0.00 0.00 0.00 1004.9
20260505070554 -17 0.0 0.0 0.00 0.00 0.00 1004.9
20260505070055 -17 0.0 0.0 0.00 0.00 0.00 1005.0
20260505065552 -17 0.0 0.0 0.00 0.00 0.00 1005.0
20260505065051 -17 0.0 0.0 0.00 0.00 0.00 1005.0
20260505064601 -17 0.0 0.0 0.00 0.00 0.00 1005.2
20260505064051 -17 0.0 0.0 0.00 0.00 0.00 1005.3
20260505063554 -17 0.0 0.0 0.00 0.00 0.00 1005.3
20260505063102 -17 0.0 0.0 0.00 0.00 0.00 1005.3
20260505062553 -17 0.0 0.0 0.00 0.00 0.00 1005.3
20260505062052 -17 0.0 0.0 0.00 0.00 0.00 1005.3
20260505061600 -17 0.0 0.0 0.00 0.00 0.00 1005.3
20260505061057 -17 0.0 0.0 0.00 0.00 0.00 1005.4
20260505060552 -17 0.0 0.0 0.00 0.00 0.00 1005.4
20260505060100 -17 0.0 0.0 0.00 0.00 0.00 1005.3
20260505055556 -17 0.0 0.0 0.00 0.00 0.00 1005.3
20260505055055 -17 0.0 0.0 0.00 0.00 0.00 1005.2
20260505054556 -17 0.0 0.0 0.00 0.00 0.00 1005.4
20260505054055 -17 0.0 0.0 0.00 0.00 0.00 1005.3
20260505053551 -17 0.0 0.0 0.00 0.00 0.00 1005.3
20260505053114 -17 0.0 0.0 0.00 0.00 0.00 1005.4
20260505052551 -17 0.0 0.0 0.00 0.00 0.00 1005.4
20260505052052 -17 0.0 0.0 0.00 0.00 0.00 1005.6
20260505051555 -17 0.0 0.0 0.00 0.00 0.00 1005.5
20260505051053 -17 0.0 0.0 0.00 0.00 0.00 1005.7
20260505050552 -17 0.0 0.0 0.00 0.00 0.00 1005.6
20260505050104 -17 0.0 0.0 0.00 0.00 0.00 1005.6
20260505041555 -17 0.0 0.0 0.00 0.00 0.00 1005.5
20260505041053 -17 0.0 0.0 0.00 0.00 0.00 1005.7
20260505040554 -17 0.0 0.0 0.00 0.00 0.00 1005.8
20260505040100 -17 14.5 30.6 0.00 0.00 0.00 1005.8
20260505035552 -17 12.9 30.6 0.00 0.00 0.00 1005.8
20260505035052 24 93 14.5 35.4 0.00 0.00 0.00 71 1005.7
20260505034615 24 178 12.9 35.4 0.00 0.00 0.00 70 1005.7
20260505034054 24 221 14.5 32.2 0.00 0.00 0.00 70 1005.7
20260505033552 24 153 12.9 32.2 0.00 0.00 0.00 70 1005.6
20260505033055 24 103 11.3 24.1 0.00 0.00 0.00 70 1005.7
20260505032551 24 136 9.7 27.4 0.00 0.00 0.00 70 1005.7
20260505032053 24 165 11.3 27.4 0.00 0.00 0.00 70 1005.9
20260505031556 24 144 11.3 37.0 0.00 0.00 0.00 69 1005.8
20260505031051 24 127 16.1 37.0 0.00 0.00 0.00 69 1005.9
20260505030553 24 164 14.5 30.6 0.00 0.00 0.00 69 1005.7
20260505030054 24 177 14.5 30.6 0.00 0.00 0.00 69 1005.8
20260505025551 24 77 12.9 29.0 0.00 0.00 0.00 69 1005.8
20260505025052 24 318 12.9 29.0 0.00 0.00 0.00 69 1005.9
20260505024554 24 115 11.3 27.4 0.00 0.00 0.00 69 1006.0
20260505024053 24 133 11.3 33.8 0.00 0.00 0.00 69 1005.8
20260505023555 24 122 17.7 33.8 0.00 0.00 0.00 69 1005.8
20260505023055 24 165 11.3 33.8 0.00 0.00 0.00 69 1005.9
20260505022552 24 207 11.3 24.1 0.00 0.00 0.00 68 1005.9
20260505022052 24 197 11.3 27.4 0.00 0.00 0.00 68 1005.8
20260505021558 24 225 11.3 35.4 0.00 0.00 0.00 68 1005.8
20260505021052 24 104 12.9 35.4 0.00 0.00 0.00 68 1005.8
20260505020551 24 130 12.9 29.0 0.00 0.00 0.00 68 1005.7
20260505020058 24 204 11.3 30.6 0.00 0.00 0.00 68 1005.6
20260505015552 24 115 11.3 30.6 0.00 0.00 0.00 67 1005.6
20260505015051 25 138 11.3 25.7 0.00 0.00 0.00 67 1005.6
20260505014556 25 97 9.7 27.4 0.00 0.00 0.00 67 1005.7
20260505014053 25 166 12.9 27.4 0.00 0.00 0.00 67 1005.7
20260505013552 25 139 11.3 27.4 0.00 0.00 0.00 67 1005.7
20260505013055 25 193 11.3 27.4 0.00 0.00 0.00 67 1005.8
20260505012552 25 116 12.9 27.4 0.00 0.00 0.00 66 1005.8
20260505012052 25 185 11.3 32.2 0.00 0.00 0.00 66 1005.8
20260505011609 25 117 14.5 32.2 0.00 0.00 0.00 66 1005.7
20260505011051 25 113 16.1 29.0 0.00 0.00 0.00 66 1005.6
20260505010551 25 133 12.9 29.0 0.00 0.00 0.00 66 1005.8
20260505010053 25 173 12.9 32.2 0.00 0.00 0.00 65 1005.7
20260505005552 25 127 14.5 32.2 0.00 0.00 0.00 65 1005.6
20260505005053 25 210 16.1 32.2 0.00 0.00 0.00 65 1005.5